FW7196 Weather Reports


time (UTC)temp
C
wind
direction
speed
KPH
gust
KPH
rain 1hr
cm
rain 24hr
cm
rain mn
cm
humidity
%
barometer
mb
20260510193035 17 125 4.8 17.7 0.00 0.23 0.10 61 1011.6
20260510191538 17 226 3.2 11.3 0.00 0.23 0.10 64 1011.4
20260510190046 16 168 3.2 12.9 0.00 0.23 0.10 67 1011.6
20260510185508 16 190 1.6 11.3 0.00 0.76 0.10 71 1011.5
20260510185006 16 118 1.6 11.3 0.00 0.76 0.10 69 1011.6
20260510184536 15 358 1.6 12.9 0.00 0.41 0.10 70 1011.6
20260510184450 16 32 1.6 8.0 0.00 0.76 0.10 70 1011.6
20260510183936 16 205 1.6 12.9 0.00 0.76 0.10 70 1011.6
20260510183440 16 264 1.6 12.9 0.00 0.76 0.10 72 1011.6
20260510183036 15 305 3.2 14.5 0.00 0.41 0.10 71 1011.6
20260510182928 15 68 1.6 12.9 0.00 0.76 0.10 71 1011.6
20260510182431 16 170 1.6 12.9 0.00 0.76 0.10 73 1011.7
20260510181918 16 175 0.0 6.4 0.00 0.76 0.10 73 1011.6
20260510181535 15 236 0.0 8.0 0.00 0.41 0.10 77 1011.6
20260510181358 16 292 1.6 8.0 0.00 0.76 0.10 77 1011.5
20260510180859 15 151 1.6 8.0 0.00 0.76 0.10 76 1011.5
20260510180352 15 199 1.6 8.0 0.00 0.76 0.10 76 1011.6
20260510180035 15 335 1.6 11.3 0.03 0.41 0.10 76 1011.7
20260510175835 15 315 0.0 8.0 0.00 0.76 0.10 77 1011.7
20260510175334 15 51 0.0 1.6 0.00 0.76 0.10 80 1011.6
20260510174822 15 37 1.6 6.4 0.00 0.76 0.10 78 1011.6
20260510174538 14 127 0.0 8.0 0.05 0.56 0.10 80 1011.5
20260510174316 15 177 0.0 6.4 0.00 0.76 0.10 81 1011.5
20260510173814 15 313 0.0 6.4 0.00 0.76 0.10 84 1011.6
20260510173307 14 138 1.6 3.2 0.00 0.76 0.10 87 1011.6
20260510173038 13 309 1.6 12.9 0.05 0.56 0.10 85 1011.7
20260510172809 13 128 1.6 3.2 0.00 0.76 0.10 84 1011.7
20260510171538 13 0 0.0 6.4 0.08 0.56 0.10 89 1011.9
20260510170035 13 211 3.2 16.1 0.05 0.51 0.05 83 1012.0
20260510164534 13 0 1.6 4.8 0.05 0.71 0.05 86 1011.8
20260510163035 13 0 0.0 0.0 0.05 0.71 0.05 88 1011.9
20260510161534 13 0 0.0 8.0 0.00 0.66 0.00 80 1011.9
20260510160039 13 104 0.0 3.2 0.00 0.66 0.00 80 1011.7
20260510154537 14 247 1.6 6.4 0.00 0.69 0.00 77 1011.6
20260510153036 13 161 1.6 9.7 0.00 0.69 0.00 82 1011.5
20260510151535 13 0 0.0 8.0 0.00 0.69 0.00 81 1011.1
20260510150041 13 155 3.2 11.3 0.00 0.69 0.00 79 1011.1
20260510144600 13 8 3.2 11.3 0.00 0.71 0.00 81 1011.1
20260510143035 13 134 3.2 11.3 0.00 0.71 0.00 81 1011.1
20260510141537 12 155 1.6 12.9 0.00 0.71 0.00 85 1011.1
20260510140035 12 142 0.0 8.0 0.00 0.71 0.00 88 1011.4
20260510134539 11 158 1.6 16.1 0.00 0.71 0.00 90 1011.5
20260510133045 11 105 1.6 12.9 0.00 0.71 0.00 91 1011.5
20260510131537 11 145 1.6 8.0 0.00 0.71 0.00 91 1011.1
20260510130037 10 98 1.6 16.1 0.00 0.71 0.00 94 1011.2
20260510124537 10 108 0.0 12.9 0.00 0.71 0.00 94 1011.1
20260510123035 10 70 1.6 11.3 0.00 0.71 0.00 95 1011.4
20260510121532 9 61 3.2 12.9 0.00 0.71 0.00 95 1011.3
20260510120036 9 135 0.0 8.0 0.00 0.71 0.00 96 1011.4
20260510114600 9 0 0.0 6.4 0.00 0.71 0.00 96 1011.0
20260510113050 9 0 0.0 14.5 0.00 0.71 0.00 96 1010.8
20260510111538 9 324 3.2 14.5 0.00 0.71 0.00 96 1010.8
20260510110038 9 92 0.0 11.3 0.00 0.71 0.00 97 1010.8
20260510104543 8 139 1.6 8.0 0.00 0.71 0.00 96 1010.3
20260510103038 8 0 0.0 0.0 0.00 0.71 0.00 96 1010.1
20260510101535 8 0 0.0 0.0 0.00 0.71 0.00 96 1009.9
20260510100050 8 0 0.0 0.0 0.00 0.71 0.00 96 1009.3
20260510094537 8 0 0.0 0.0 0.00 0.71 0.00 96 1009.2
20260510093035 8 0 0.0 6.4 0.00 0.71 0.00 96 1009.4
20260510091537 8 0 0.0 0.0 0.00 0.71 0.00 96 1009.2
20260510091459 8 110 0.0 0.0 0.00 0.69 0.00 96 1009.2
20260510090035 8 0 0.0 3.2 0.00 0.71 0.00 96 1009.1
20260510084536 8 133 0.0 3.2 0.00 0.71 0.00 96 1009.7
20260510083042 8 0 0.0 1.6 0.00 0.71 0.00 96 1009.8
20260510081536 8 0 0.0 1.6 0.00 0.71 0.00 96 1009.8
20260510080035 8 0 0.0 6.4 0.00 0.71 0.00 96 1009.9
20260510074542 8 0 0.0 4.8 0.00 0.71 0.00 96 1009.8
20260510073037 8 0 0.0 3.2 0.00 0.71 0.00 96 1009.8
20260510071536 7 0 0.0 3.2 0.00 0.71 0.00 96 1009.7
20260510070047 7 0 0.0 0.0 0.00 0.71 0.00 96 1009.7
20260510064534 7 0 0.0 0.0 0.00 0.71 0.00 96 1009.9
20260510063042 7 0 0.0 0.0 0.00 0.71 0.00 96 1009.8
20260510061538 7 0 0.0 0.0 0.00 0.71 0.00 96 1009.9
20260510060041 7 0 0.0 0.0 0.00 0.71 0.00 95 1010.0
20260510054542 7 0 0.0 0.0 0.00 0.71 0.00 96 1010.2
20260510053036 7 0 0.0 0.0 0.00 0.71 0.00 95 1010.3
20260510051537 7 0 0.0 4.8 0.00 0.71 0.00 95 1010.1
20260510050035 7 0 0.0 11.3 0.00 0.71 0.00 96 1010.5
20260510044537 7 190 0.0 6.4 0.00 0.71 0.00 95 1010.6
20260510043037 7 0 0.0 3.2 0.00 0.71 0.00 95 1010.4
20260510041546 6 0 0.0 1.6 0.00 0.71 0.00 95 1010.4
20260510040034 6 0 0.0 4.8 0.00 0.71 0.00 95 1010.5
20260510034535 6 0 0.0 6.4 0.00 0.71 0.71 95 1010.5
20260510033039 6 0 0.0 9.7 0.00 0.71 0.71 95 1010.4
20260510031538 7 225 1.6 8.0 0.00 0.71 0.71 95 1010.4
20260510030036 6 0 0.0 3.2 0.00 0.71 0.71 95 1010.7
20260510024534 6 0 0.0 4.8 0.00 0.71 0.71 95 1010.5
20260510023035 7 0 0.0 6.4 0.00 0.71 0.71 95 1010.8
20260510021539 6 0 0.0 3.2 0.00 0.71 0.71 95 1010.9
20260510020036 6 0 0.0 9.7 0.00 0.71 0.71 95 1010.8
20260510014536 6 0 0.0 8.0 0.00 0.71 0.71 95 1011.0
20260510013039 6 0 0.0 0.0 0.00 0.71 0.71 95 1010.8
20260510011535 6 92 0.0 6.4 0.00 0.71 0.71 95 1010.8
20260510010036 6 0 0.0 4.8 0.00 0.71 0.71 95 1010.9
20260510004536 6 0 0.0 11.3 0.00 0.71 0.71 95 1010.9
20260510003051 6 0 1.6 6.4 0.00 0.71 0.71 94 1010.7
20260510001541 7 0 0.0 0.0 0.00 0.71 0.71 94 1010.6
20260510000039 7 0 0.0 0.0 0.00 0.71 0.71 94 1010.2
20260509234545 7 171 0.0 3.2 0.00 0.71 0.71 94 1010.1
20260509233034 7 0 0.0 3.2 0.00 0.71 0.71 94 1010.0
20260509231536 7 0 0.0 6.4 0.00 0.71 0.71 94 1010.1
20260509230036 7 0 0.0 3.2 0.00 0.71 0.71 94 1010.2
20260509224536 7 0 0.0 1.6 0.00 0.71 0.71 94 1010.3
20260509223035 7 228 0.0 4.8 0.00 0.71 0.71 94 1010.3
20260509221536 7 311 0.0 1.6 0.00 0.71 0.71 94 1010.3
20260509220052 7 0 0.0 0.0 0.00 0.71 0.71 94 1010.6
20260509214935 7 108 0.0 0.0 0.00 0.05 0.69 94 1010.6
20260509214540 7 0 0.0 4.8 0.03 0.71 0.71 94 1010.7
20260509213041 7 0 0.0 1.6 0.03 0.71 0.71 94 1010.8
20260509211543 7 0 0.0 1.6 0.03 0.71 0.71 94 1010.8
20260509210036 7 278 0.0 4.8 0.00 0.69 0.69 93 1010.8
20260509204542 7 0 0.0 1.6 0.00 0.69 0.69 93 1010.7
20260509203037 7 0 0.0 3.2 0.00 0.69 0.69 93 1010.8
20260509201534 7 0 0.0 4.8 0.03 0.69 0.69 93 1010.9
20260509200041 7 121 1.6 9.7 0.08 0.69 0.69 93 1010.8
20260509194541 7 0 0.0 6.4 0.13 0.69 0.69 94 1010.9